[[{"header":{"parameterUnit":"m.s-1","parameterCategory":1,"la1":30.2991,"la2":30.254,"lo1":-89.0895,"lo2":-89.0444,"dy":0.0017,"dx":0.0017,"nx":28,"ny":28,"refTime":"2024-08-24T21:00:00:Z","depth":0,"parameterNumber":2,"parameterNumberName":"U-component_of_WINDS"},"data":[0,0,0,0,0,0,0,0,0,0,0,0,0,0,0,0,0,0,0,0,0,0,0,0,0,0,0,0,0,0,0,0,0,0,0,0,0,0,0,0,0,0,0,0,0,0,0,0,0,0,0,0,0,0,0,0,0,0,-0.4161,-0.4162,0,-0.4244,-0.4245,-0.4246,-0.428,-0.428,-0.4279,-0.4279,-0.4371,-0.4373,-0.4376,0,0,0,0,0,0,0,0,0,0,0,0,0,-0.4038,-0.404,-0.4161,-0.4162,-0.4163,-0.4244,-0.4245,-0.4247,-0.428,-0.428,-0.4279,-0.4279,-0.437,-0.4373,-0.4376,0,0,0,0,0,0,0,0,0,0,0,0,0,-0.4103,-0.404,-0.4161,-0.4189,-0.4193,-0.4244,-0.4245,-0.4247,-0.428,-0.428,-0.4279,-0.4279,-0.4369,-0.4372,-0.4376,-0.4407,0,0,-0.4388,-0.439,0,0,0,0,0,0,0,0,-0.4099,-0.4108,-0.4184,-0.4187,-0.4191,-0.4251,-0.4235,-0.4301,-0.428,-0.4247,-0.4279,-0.4279,-0.4332,-0.4338,-0.4355,-0.4411,-0.4415,-0.4389,-0.4391,-0.4393,-0.4394,0,0,0,0,0,0,0,-0.4095,-0.4104,-0.4194,-0.4185,-0.419,-0.42,-0.4209,-0.4248,-0.429,-0.425,-0.4253,-0.4262,-0.4333,-0.4351,-0.4357,-0.4417,-0.4389,-0.4392,-0.4395,-0.4396,-0.4505,-0.4506,0,0,0,0,0,0,-0.4085,-0.41,-0.4192,-0.4197,-0.4143,-0.4203,-0.4213,-0.4232,-0.429,-0.4298,-0.4262,-0.4263,-0.4345,-0.4353,-0.4361,-0.4402,-0.4393,-0.4397,-0.4399,-0.4505,-0.4505,-0.4506,0,0,0,0,0,0,-0.4082,-0.4092,-0.4188,-0.4149,-0.4162,-0.4205,-0.4227,-0.4234,-0.4252,-0.4299,-0.4307,-0.4272,-0.4345,-0.4355,-0.4396,-0.4406,-0.4398,-0.4402,-0.4504,-0.4505,-0.4506,-0.4484,0,0,0,0,0,0,-0.4078,-0.4091,-0.4102,-0.4149,-0.4164,-0.4219,-0.4228,-0.4236,-0.4258,-0.426,-0.431,-0.4318,-0.4345,-0.4389,-0.4399,-0.4411,-0.4405,-0.4504,-0.4505,-0.4506,-0.4484,-0.4484,-0.4484,0,0,0,0,0,-0.4074,-0.4093,-0.4102,-0.4113,-0.4178,-0.422,-0.4229,-0.4257,-0.4258,-0.4271,-0.4301,-0.4317,-0.4403,-0.4393,-0.4405,-0.4418,-0.4503,-0.4504,-0.4505,-0.4484,-0.4484,-0.4484,0,0,0,0,0,0,-0.4047,-0.41,-0.411,-0.4145,-0.4177,-0.4225,-0.4241,-0.4256,-0.429,-0.4291,-0.4328,-0.4339,-0.4376,-0.4401,-0.439,-0.4452,-0.4454,-0.4458,-0.4434,-0.4435,-0.4434,-0.4428,-0.4408,0,0,0,0,0,-0.4045,-0.4073,-0.4118,-0.4145,-0.416,-0.4198,-0.4217,-0.4237,-0.4273,-0.4287,-0.432,-0.4356,-0.4392,-0.4415,-0.445,-0.4488,-0.4501,-0.4503,-0.4503,-0.4502,-0.4505,-0.453,-0.4532,-0.451,-0.451,-0.451,0,0,-0.4042,-0.4074,-0.409,-0.414,-0.4168,-0.4198,-0.4209,-0.424,-0.4264,-0.4292,-0.4332,-0.4358,-0.4401,-0.4441,-0.446,-0.4463,-0.4514,-0.4504,-0.4503,-0.4507,-0.4531,-0.4533,-0.4535,-0.4511,-0.4511,-0.4511,0,0,-0.4051,-0.4077,-0.4103,-0.413,-0.4171,-0.4196,-0.4202,-0.4248,-0.4266,-0.4306,-0.4329,-0.4359,-0.4418,-0.4448,-0.4471,-0.4494,-0.451,-0.4504,-0.4504,-0.4528,-0.453,-0.4531,-0.4541,-0.4544,-0.4507,-0.4507,-0.4507,0,-0.4043,-0.4087,-0.4115,-0.4145,-0.4168,-0.4193,-0.4221,-0.4247,-0.4298,-0.4314,-0.4316,-0.4392,-0.4423,-0.4471,-0.4476,-0.4494,-0.4504,-0.4499,-0.4527,-0.4529,-0.4531,-0.4541,-0.4544,-0.4506,-0.4506,-0.4506,-0.4506,0,-0.4075,-0.4105,-0.4121,-0.4168,-0.4193,-0.4222,-0.4257,-0.4279,-0.4296,-0.4322,-0.4364,-0.4402,-0.4446,-0.4459,-0.4477,-0.4511,-0.4511,-0.4519,-0.4523,-0.4532,-0.4542,-0.4546,-0.4505,-0.4505,-0.4505,-0.4506,0,0,-0.407,-0.4132,-0.4137,-0.416,-0.4207,-0.4233,-0.4264,-0.4305,-0.4325,-0.4359,-0.4388,-0.4439,-0.4447,-0.4473,-0.4495,-0.4516,-0.4534,-0.4522,-0.4523,-0.4524,-0.4576,-0.457,-0.4574,-0.4544,-0.4545,-0.4546,-0.4573,0,-0.4086,-0.414,-0.4167,-0.4211,-0.4241,-0.4267,-0.4295,-0.4328,-0.4354,-0.4385,-0.4414,-0.445,-0.4457,-0.4473,-0.4494,-0.4527,-0.4545,-0.4525,-0.4574,-0.4576,-0.4564,-0.4579,-0.4573,-0.4596,-0.4577,-0.4577,-0.4578,0,-0.4113,-0.4146,-0.4192,-0.4237,-0.4251,-0.4275,-0.4316,-0.4345,-0.4385,-0.4402,-0.4432,-0.4453,-0.449,-0.449,-0.4543,-0.4529,-0.4551,-0.457,-0.4572,-0.4579,-0.4578,-0.4588,-0.4604,-0.4608,-0.4584,-0.4583,-0.4583,0,-0.4106,-0.4162,-0.4197,-0.4216,-0.4269,-0.4286,-0.431,-0.4349,-0.4373,-0.441,-0.4426,-0.4467,-0.449,-0.4523,-0.4556,-0.4553,-0.4607,-0.4609,-0.4625,-0.4624,-0.4635,-0.4634,-0.4657,-0.4647,-0.4647,-0.4647,-0.4647,0,-0.4122,-0.415,-0.4195,-0.4217,-0.425,-0.4282,-0.4315,-0.4341,-0.4376,-0.4405,-0.4431,-0.4458,-0.45,-0.4534,-0.456,-0.4601,-0.4611,-0.4628,-0.4635,-0.4627,-0.4625,-0.4643,-0.4642,-0.4648,-0.4648,-0.4648,-0.4647,0,-0.412,-0.4151,-0.4192,-0.4239,-0.4252,-0.4274,-0.4316,-0.434,-0.4367,-0.4404,-0.4415,-0.4458,-0.4499,-0.4535,-0.459,-0.4609,-0.4651,-0.4659,-0.4637,-0.4641,-0.4655,-0.4654,-0.4691,-0.4699,-0.4682,-0.4682,-0.4682,0,-0.4129,-0.415,-0.42,-0.4221,-0.4243,-0.4276,-0.43,-0.4334,-0.4359,-0.4407,-0.4426,-0.4468,-0.4504,-0.457,-0.4608,-0.4651,-0.4661,-0.4671,-0.4667,-0.4659,-0.4663,-0.4662,-0.4666,-0.4671,-0.4671,-0.4671,-0.4671,0,-0.4141,-0.4156,-0.4189,-0.4227,-0.4255,-0.4288,-0.4321,-0.4337,-0.4378,-0.4405,-0.4447,-0.4474,-0.453,-0.4574,-0.4621,-0.4649,-0.4668,-0.4672,-0.4678,-0.467,-0.4657,-0.4666,-0.4639,-0.4671,-0.4671,-0.4671,-0.4671,-0.4671,-0.4146,-0.4167,-0.4206,-0.4242,-0.4271,-0.4302,-0.4327,-0.4357,-0.4391,-0.4438,-0.4457,-0.45,-0.4542,-0.4608,-0.4635,-0.4672,-0.4675,-0.4683,-0.4686,-0.4688,-0.4687,-0.465,-0.468,-0.468,-0.468,-0.468,-0.468,0,-0.4162,-0.4188,-0.422,-0.4266,-0.4295,-0.4309,-0.4347,-0.4372,-0.4408,-0.4445,-0.448,-0.453,-0.4572,-0.4614,-0.4659,-0.4681,-0.4691,-0.4692,-0.4691,-0.4698,-0.4681,-0.4671,-0.4683,-0.4683,-0.4683,-0.4683,-0.4683,-0.4683,-0.4173,-0.421,-0.4229,-0.4282,-0.4309,-0.435,-0.4371,-0.4401,-0.4431,-0.4484,-0.4519,-0.4545,-0.4585,-0.4634,-0.4675,-0.4686,-0.4703,-0.4702,-0.4716,-0.4699,-0.4699,-0.4698,-0.469,-0.4705,-0.4705,-0.473,-0.473,-0.4731]},{"header":{"parameterUnit":"m.s-1","parameterCategory":1,"la1":30.2991,"la2":30.254,"lo1":-89.0895,"lo2":-89.0444,"dy":0.0017,"dx":0.0017,"nx":28,"ny":28,"refTime":"2024-08-24T21:00:00:Z","depth":0,"parameterNumber":3,"parameterNumberName":"V-component_of_WINDS"},"data":[0,0,0,0,0,0,0,0,0,0,0,0,0,0,0,0,0,0,0,0,0,0,0,0,0,0,0,0,0,0,0,0,0,0,0,0,0,0,0,0,0,0,0,0,0,0,0,0,0,0,0,0,0,0,0,0,0,0,3.249,3.2491,0,3.2562,3.2562,3.2563,3.2609,3.2609,3.2609,3.261,3.2678,3.268,3.2682,0,0,0,0,0,0,0,0,0,0,0,0,0,3.2386,3.2387,3.249,3.2491,3.2492,3.2561,3.2562,3.2563,3.2609,3.2609,3.261,3.261,3.2678,3.268,3.2682,0,0,0,0,0,0,0,0,0,0,0,0,0,3.2441,3.2388,3.249,3.2523,3.2527,3.2561,3.2563,3.2564,3.2609,3.2609,3.261,3.261,3.2677,3.268,3.2682,3.2688,0,0,3.2689,3.269,0,0,0,0,0,0,0,0,3.2438,3.2445,3.2517,3.2521,3.2525,3.2577,3.2551,3.2605,3.2609,3.2577,3.261,3.261,3.2644,3.2649,3.2661,3.2691,3.2694,3.2689,3.2691,3.2692,3.2692,0,0,0,0,0,0,0,3.2434,3.2442,3.2518,3.2518,3.2523,3.2532,3.254,3.2561,3.2607,3.258,3.2584,3.2592,3.2646,3.2659,3.2663,3.2695,3.2689,3.2691,3.2693,3.2694,3.2729,3.2729,0,0,0,0,0,0,3.2426,3.2439,3.2516,3.252,3.2482,3.2533,3.2543,3.256,3.2607,3.2615,3.2591,3.2594,3.2655,3.2661,3.2666,3.2674,3.2692,3.2694,3.2695,3.2729,3.2729,3.2728,0,0,0,0,0,0,3.2424,3.2432,3.2513,3.2481,3.2492,3.2535,3.2553,3.2561,3.2574,3.2616,3.2624,3.2597,3.2655,3.2663,3.2682,3.2677,3.2695,3.2697,3.273,3.2729,3.2729,3.2691,0,0,0,0,0,0,3.242,3.2431,3.2436,3.248,3.2493,3.253,3.2553,3.2562,3.2578,3.2582,3.2623,3.263,3.2656,3.2678,3.2684,3.2681,3.2699,3.2731,3.273,3.2729,3.2693,3.2689,3.2686,0,0,0,0,0,3.2416,3.2422,3.2436,3.2445,3.25,3.2529,3.2536,3.2568,3.2578,3.2582,3.2608,3.2629,3.2676,3.2679,3.2687,3.2684,3.2731,3.273,3.2729,3.2694,3.269,3.2686,0,0,0,0,0,0,3.2376,3.2429,3.2445,3.2466,3.2493,3.2537,3.2543,3.2563,3.2587,3.2589,3.2626,3.2634,3.2649,3.2668,3.267,3.269,3.2706,3.2706,3.2677,3.2673,3.267,3.2664,3.2701,0,0,0,0,0,3.237,3.2391,3.2435,3.2449,3.2462,3.25,3.2514,3.2535,3.2564,3.2576,3.2603,3.2629,3.265,3.2663,3.2684,3.2696,3.2703,3.2697,3.2693,3.269,3.269,3.2694,3.2691,3.2725,3.2725,3.2725,0,0,3.2357,3.2388,3.2399,3.2442,3.2465,3.2483,3.2509,3.2529,3.2542,3.2578,3.2598,3.2618,3.2649,3.2663,3.2671,3.268,3.2682,3.2689,3.2686,3.2688,3.2693,3.269,3.2687,3.2724,3.2724,3.2724,0,0,3.2342,3.2369,3.2382,3.2405,3.244,3.2464,3.2467,3.2508,3.2523,3.2543,3.257,3.2585,3.2621,3.2641,3.2655,3.2644,3.2663,3.2649,3.2631,3.2635,3.2632,3.263,3.2624,3.2621,3.2649,3.2649,3.2649,0,3.2321,3.2352,3.2386,3.2403,3.242,3.2453,3.2465,3.2485,3.2524,3.2534,3.2543,3.2586,3.261,3.2628,3.2625,3.2636,3.2638,3.2645,3.263,3.2628,3.2627,3.2621,3.2619,3.2647,3.2647,3.2647,3.2648,0,3.2323,3.2344,3.235,3.2387,3.2404,3.2418,3.2452,3.2465,3.2483,3.2506,3.2524,3.2552,3.2579,3.2585,3.2604,3.2604,3.2609,3.2624,3.264,3.2621,3.2616,3.2614,3.2644,3.2645,3.2645,3.2646,0,0,3.2289,3.2342,3.2344,3.2359,3.2398,3.2414,3.2427,3.2454,3.2463,3.2488,3.2498,3.2526,3.2539,3.2556,3.2577,3.258,3.2566,3.2595,3.2596,3.2587,3.2565,3.2552,3.255,3.2578,3.2578,3.2578,3.2562,0,3.2279,3.2308,3.2336,3.2354,3.2371,3.2401,3.2412,3.2436,3.2456,3.2472,3.2494,3.2512,3.2529,3.2539,3.2544,3.2567,3.2562,3.2568,3.2587,3.2587,3.2577,3.2548,3.2535,3.2519,3.256,3.256,3.256,0,3.2273,3.2296,3.2315,3.2348,3.2357,3.2367,3.2391,3.2407,3.2432,3.2447,3.2463,3.2485,3.2498,3.2512,3.2529,3.2533,3.2542,3.2554,3.2554,3.2556,3.2572,3.2547,3.2514,3.2511,3.2557,3.2558,3.2558,0,3.2243,3.2279,3.2294,3.2306,3.2347,3.2353,3.2369,3.2396,3.2408,3.2429,3.2437,3.2458,3.247,3.2485,3.251,3.2519,3.2523,3.2541,3.2534,3.2533,3.2533,3.2533,3.2499,3.254,3.2541,3.2541,3.2541,0,3.223,3.2239,3.2281,3.229,3.23,3.2331,3.234,3.2359,3.2381,3.2393,3.242,3.2429,3.2463,3.2476,3.2496,3.2505,3.2511,3.2521,3.2526,3.2518,3.2516,3.2524,3.2525,3.254,3.254,3.254,3.254,0,3.2199,3.2227,3.2245,3.2281,3.2289,3.2295,3.2325,3.2333,3.2354,3.2367,3.2372,3.2404,3.242,3.2447,3.2471,3.2485,3.2489,3.2499,3.2481,3.2483,3.2474,3.2474,3.2444,3.244,3.2484,3.2484,3.2484,0,3.2189,3.2197,3.2232,3.2241,3.2257,3.2273,3.2285,3.2314,3.2326,3.2353,3.2357,3.2375,3.2392,3.2415,3.2439,3.2457,3.2466,3.2454,3.2469,3.246,3.2464,3.2462,3.2462,3.2451,3.245,3.245,3.2449,0,3.2166,3.2178,3.2196,3.2216,3.223,3.2248,3.2267,3.2273,3.2306,3.2317,3.2334,3.2346,3.2369,3.2386,3.2406,3.2421,3.2439,3.2444,3.2443,3.2435,3.2423,3.2427,3.247,3.2445,3.2445,3.2446,3.2446,3.2446,3.2144,3.2151,3.2176,3.2193,3.221,3.2226,3.2234,3.2255,3.2269,3.2291,3.2307,3.2321,3.2343,3.2372,3.2386,3.2396,3.2405,3.2404,3.2403,3.2402,3.2398,3.2422,3.24,3.24,3.24,3.24,3.2401,0,3.2121,3.2138,3.2153,3.2178,3.219,3.2206,3.2227,3.2236,3.2248,3.2267,3.2281,3.2298,3.2313,3.2337,3.2354,3.2357,3.2366,3.236,3.236,3.2362,3.239,3.2389,3.2353,3.2353,3.2353,3.2353,3.2353,3.2353,3.2111,3.2123,3.2137,3.2155,3.2171,3.2186,3.2196,3.2209,3.2224,3.2242,3.2254,3.227,3.2289,3.2307,3.232,3.2327,3.2331,3.2322,3.2331,3.2357,3.2361,3.2365,3.2364,3.2323,3.2323,3.2302,3.2302,3.2302]}]]